Orbital Elements at Epoch 2459200.5 (2020-Dec-17.0) TDB
Reference: JPL 13 (heliocentric ecliptic J2000)
Element | Value | Uncertainty (1-sigma) | Units |
e | .0376722818377055 | 1.292e-07 | |
a | 2.901655863995543 | 3.1139e-08 | au |
q | 2.792343866491072 | 3.827e-07 | au |
i | 1.873588651698079 | 2.0039e-05 | deg |
node | 350.2995254633313 | 0.00015601 | deg |
peri | 48.10809175474672 | 0.00026443 | deg |
M | 120.0120563304819 | 0.00021458 | deg |
tp | 2458598.648067842147 (2019-Apr-25.14806784) | 0.0010747 | TDB |
period | 1805.374411552315 4.94 | 2.9061e-05 7.956e-08 | d yr |
n | .1994046208345565 | 3.2098e-09 | deg/d |
Q | 3.010967861500013 | 3.2312e-08 | au |
|
| | Orbit Determination Parameters
Additional Information
|